Location: *
(35.1500°N, 76.6700°W)
Time: 04:22:35
(UTC+00:00)

YAOGAN 1 - Pass Details

Date: 13 October 2019
Orbit: 619 x 621 km, 98.0° (Epoch: 21 November)

Event Time Altitude Azimuth Distance (km) Brightness Sun altitude
Rises 23:22:26 0° 157° (SSE) 2,882 5.8 -10.6°
Reaches altitude 10° 23:24:38 10° 153° (SSE) 1,980 4.9 -11.0°
Maximum altitude 23:28:51 56° 75° (ENE) 739 2.6 -11.9°
Drops below altitude 10° 23:33:05 10° 357° (N) 1,994 5.2 -12.8°
Sets 23:35:19 0° 353° (N) 2,903 6.1 -13.2°
